Weather History for Nome, AK

Change the Weather History Date:

Saturday, December 14, 2013

  Actual Average Record
Temperature  
Mean Temperature 10 °F 10 °F  
Max Temperature 13 °F 17 °F 38 °F (1985)
Min Temperature 7 °F - -31 °F (1946)
Degree Days  
Heating Degree Days 55 55  
Month to date heating degree days 596 754  
Since 1 July heating degree days 4398 4852  
Cooling Degree Days 0    
Month to date cooling degree days 0  
Year to date cooling degree days 7  
Moisture  
Dew Point 0 °F    
Average Humidity 0    
Maximum Humidity 0    
Minimum Humidity 0    
Precipitation  
Precipitation 0.00 in 0.03 in 0.65 in (1914)
Month to date precipitation 1.43 0.47  
Year to date precipitation 21.75 16.20  
Snow  
Snow 0.00 in 0.50 in 6.00 in (1914)
Month to date snowfall 5.6 6.1  
Since 1 July snowfall 20.2 23.4  
Snow Depth 1.00 in    
Sea Level Pressure  
Sea Level Pressure 29.78 in    
Wind  
Wind Speed 13 mph (NNW)    
Max Wind Speed 32 mph    
Max Gust Speed 38 mph    
Visibility 10 miles    
Events      
T = Trace of Precipitation, MM = Missing Value Source: NWS Daily Summary

Daily Weather History Graph

Daily Weather History Graph

Search for Another Location

Airport:

Trip Planner

Search our weather history database for the weather conditions in past years. The results will help you decide how hot, cold, wet, or windy it might be!

Date:

Astronomy

Dec. 14, 2013 Rise Set
Actual Time 11:56 AM AKST 3:57 PM AKST
Civil Twilight 10:34 AM AKST 5:18 PM AKST
Nautical Twilight 9:24 AM AKST 6:28 PM AKST
Astronomical Twilight 8:24 AM AKST 7:29 PM AKST
Moon 3:19 PM AKST (12/14) 8:33 AM AKST (12/14)
Length of Visible Light 6h 43m
Length of Day
4h 01m
Waxing Gibbous, 94% of the Moon is Illuminated
Dec 14
Waxing Gibbous
Dec 17
Full
Dec 25
Last Quarter
Jan 1
New
Jan 7
First Quarter

Hourly Weather History & Observations

Time (AKST) Temp. Windchill Dew Point Humidity Pressure Visibility Wind Dir Wind Speed Gust Speed Precip Events Conditions
12:53 AM 12.0 °F -1.3 °F -4.0 °F 49% 29.73 in 10.0 mi NNW 10.4 mph - N/A   Scattered Clouds
1:53 AM 10.9 °F - -2.0 °F 56% 29.74 in 10.0 mi Calm Calm - N/A   Mostly Cloudy
2:53 AM 12.0 °F -5.1 °F -2.0 °F 53% 29.74 in 10.0 mi NNW 17.3 mph 26.5 mph N/A   Mostly Cloudy
3:53 AM 10.9 °F -8.3 °F -0.9 °F 59% 29.72 in 10.0 mi North 21.9 mph 29.9 mph N/A   Mostly Cloudy
4:53 AM 10.9 °F -4.1 °F -0.9 °F 59% 29.74 in 10.0 mi NNW 12.7 mph 21.9 mph N/A   Mostly Cloudy
5:53 AM 10.0 °F -8.6 °F -0.0 °F 64% 29.72 in 10.0 mi North 19.6 mph 25.3 mph N/A   Mostly Cloudy
6:53 AM 9.0 °F -7.9 °F -0.0 °F 67% 29.74 in 10.0 mi North 15.0 mph - N/A   Scattered Clouds
7:53 AM 9.0 °F 0.6 °F -0.9 °F 64% 29.73 in 10.0 mi NNW 4.6 mph - N/A   Scattered Clouds
8:53 AM 9.0 °F - -0.9 °F 64% 29.74 in 10.0 mi Calm Calm - N/A   Scattered Clouds
9:53 AM 10.0 °F -5.2 °F -0.9 °F 61% 29.74 in 10.0 mi NNW 12.7 mph - N/A   Scattered Clouds
10:53 AM 9.0 °F -5.9 °F -2.0 °F 61% 29.75 in 10.0 mi NW 11.5 mph 19.6 mph N/A   Scattered Clouds
11:53 AM 8.1 °F -7.0 °F -2.0 °F 64% 29.77 in 10.0 mi North 11.5 mph - N/A   Partly Cloudy
12:53 PM 9.0 °F -5.9 °F -2.0 °F 61% 29.79 in 10.0 mi NNW 11.5 mph - N/A   Partly Cloudy
1:53 PM 9.0 °F -13.0 °F -2.0 °F 61% 29.79 in 10.0 mi North 27.6 mph 38.0 mph N/A   Partly Cloudy
2:53 PM 8.1 °F -10.2 °F -0.9 °F 67% 29.81 in 10.0 mi North 17.3 mph 26.5 mph N/A   Partly Cloudy
3:53 PM 8.1 °F - -0.9 °F 67% 29.81 in 10.0 mi Calm Calm - N/A   Partly Cloudy
4:53 PM 9.0 °F -9.0 °F -0.9 °F 64% 29.81 in 10.0 mi WNW 17.3 mph 25.3 mph N/A   Scattered Clouds
5:53 PM 8.1 °F -11.7 °F 1.0 °F 73% 29.81 in 10.0 mi NW 20.7 mph 27.6 mph N/A   Scattered Clouds
6:53 PM 8.1 °F -6.2 °F 1.0 °F 73% 29.81 in 10.0 mi NNW 10.4 mph - N/A   Scattered Clouds
7:53 PM 9.0 °F -9.0 °F 1.9 °F 73% 29.83 in 10.0 mi NNW 17.3 mph - N/A   Scattered Clouds
8:53 PM 10.0 °F -8.1 °F 3.0 °F 73% 29.83 in 10.0 mi NNW 18.4 mph 25.3 mph N/A   Scattered Clouds
9:53 PM 10.0 °F 3.6 °F 3.9 °F 76% 29.86 in 10.0 mi Variable 3.5 mph - N/A   Scattered Clouds
10:53 PM 12.0 °F -6.9 °F 5.0 °F 73% 29.87 in 10.0 mi NW 21.9 mph - N/A   Scattered Clouds
11:53 PM 10.0 °F -3.7 °F 3.0 °F 73% 29.87 in 10.0 mi West 10.4 mph - N/A   Scattered Clouds